Dalhart, TX

1:45 PM CDT on July 20, 2017 (GMT -0500)
Dalhart Municipal

Weather History for KDHT - June, 2013

Change the Weather History Date:

Tuesday, June 18, 2013

  Actual Average Record
Temperature  
Mean Temperature 76 °F 74 °F  
Max Temperature 87 °F 88 °F 102 °F (2012)
Min Temperature 64 °F 59 °F 50 °F (1998)
Degree Days  
Heating Degree Days 0 0  
Month to date heating degree days 0 9  
Since 1 June heating degree days 0 9  
Since 1 July heating degree days 4400 4726  
Cooling Degree Days 11 9  
Month to date cooling degree days 198 119  
Year to date cooling degree days 352 191  
Since 1 June cooling degree days 198 119  
Growing Degree Days 25 (Base 50)    
Moisture  
Dew Point 58 °F    
Average Humidity 59    
Maximum Humidity 87    
Minimum Humidity 30    
Precipitation  
Precipitation 0.36 in 0.07 in 1.95 in (1993)
Month to date precipitation 0.61 1.39  
Year to date precipitation 1.91 6.80  
Snow  
Snow 0.00 in 0.00 in T in (1991)
Month to date snowfall 0.0 0.0  
Since 1 June snowfall 0.0 0.0  
Since 1 July snowfall 21.6 18.9  
Snow Depth 0.00 in    
Sea Level Pressure  
Sea Level Pressure 29.99 in    
Wind  
Wind Speed 10 mph (SSE)    
Max Wind Speed 28 mph    
Max Gust Speed 32 mph    
Visibility 9 miles    
Events Rain , Thunderstorm    
T = Trace of Precipitation, MM = Missing Value Source: NWS Daily Summary

Daily Weather History Graph

Daily Weather History Graph

Search for Another Location

Airport or City:

Trip Planner

Search our weather history database for the weather conditions in past years. The results will help you decide how hot, cold, wet, or windy it might be!

Date:

Astronomy

Jun. 18, 2013 Rise Set
Actual Time 6:33 AM CDT 9:09 PM CDT
Civil Twilight 6:02 AM CDT 9:39 PM CDT
Nautical Twilight 5:25 AM CDT 10:17 PM CDT
Astronomical Twilight 4:43 AM CDT 10:59 PM CDT
Moon 4:03 PM CDT (6/18) 2:34 AM CDT (6/18)
Length of Visible Light 15h 37m
Length of Day
14h 36m
Waxing Gibbous, 71% of the Moon is Illuminated
Jun 18
Waxing Gibbous
Jun 23
Full
Jun 29
Last Quarter
Jul 8
New
Jul 15
First Quarter

Hourly Weather History & Observations

Time (CDT) Temp. Heat Index Dew Point Humidity Pressure Visibility Wind Dir Wind Speed Gust Speed Precip Events Conditions
12:21 AM 69.8 °F - 60.8 °F 73% 30.15 in 10.0 mi NE 13.8 mph - 0.00 in Rain Light Rain
12:34 AM 69.8 °F - 60.8 °F 73% 30.15 in 10.0 mi NE 13.8 mph - 0.00 in Rain , Thunderstorm Light Rain
12:53 AM 69.1 °F - 61.0 °F 75% 29.98 in 8.0 mi ENE 12.7 mph - 0.00 in Rain , Thunderstorm Light Thunderstorms and Rain
1:53 AM 66.9 °F - 62.1 °F 84% 30.00 in 7.0 mi SSW 15.0 mph 18.4 mph 0.09 in Rain , Thunderstorm Light Thunderstorms and Rain
2:39 AM 64.4 °F - 59.0 °F 83% 30.20 in 10.0 mi Variable 4.6 mph 16.1 mph 0.03 in Rain , Thunderstorm Light Thunderstorms and Rain
2:45 AM 66.2 °F - 57.2 °F 73% 30.19 in 10.0 mi NE 5.8 mph - 0.03 in Thunderstorm Thunderstorm
2:53 AM 64.9 °F - 60.1 °F 84% 30.01 in 10.0 mi NNE 11.5 mph - 0.03 in Rain Light Rain
3:45 AM 64.4 °F - 60.8 °F 88% 30.16 in 1.8 mi Calm Calm - 0.17 in Rain Heavy Rain
3:53 AM 64.9 °F - 62.1 °F 90% 29.98 in 1.2 mi SSW 5.8 mph - 0.24 in Rain Heavy Rain
3:57 AM 64.4 °F - 62.6 °F 94% 30.16 in 3.0 mi West 4.6 mph - 0.00 in Rain Light Rain
4:53 AM 64.9 °F - 61.0 °F 87% 29.97 in 10.0 mi WNW 6.9 mph - 0.01 in Thunderstorm Thunderstorm
5:16 AM 64.4 °F - 60.8 °F 88% 30.15 in 10.0 mi West 4.6 mph - 0.00 in   Overcast
5:53 AM 64.9 °F - 61.0 °F 87% 29.96 in 10.0 mi SW 11.5 mph - 0.00 in   Clear
6:41 AM 64.4 °F - 60.8 °F 88% 30.12 in 10.0 mi NW 8.1 mph - N/A   Mostly Cloudy
6:53 AM 64.9 °F - 60.1 °F 84% 29.97 in 10.0 mi North 8.1 mph - N/A   Mostly Cloudy
7:53 AM 64.9 °F - 60.1 °F 84% 30.01 in 10.0 mi ENE 9.2 mph - N/A   Clear
8:53 AM 69.1 °F - 61.0 °F 75% 30.02 in 10.0 mi NNE 4.6 mph - N/A   Clear
9:53 AM 71.1 °F - 59.0 °F 66% 30.02 in 10.0 mi Calm Calm - N/A   Clear
10:53 AM 73.0 °F - 60.1 °F 64% 30.01 in 10.0 mi East 5.8 mph - N/A   Clear
11:53 AM 75.9 °F - 57.0 °F 52% 29.99 in 10.0 mi East 5.8 mph - N/A   Clear
12:53 PM 78.1 °F - 57.0 °F 48% 29.97 in 10.0 mi SSE 4.6 mph - N/A   Clear
1:53 PM 81.0 °F 81.0 °F 57.0 °F 44% 29.95 in 10.0 mi SW 9.2 mph - N/A   Clear
2:53 PM 82.9 °F 81.8 °F 53.1 °F 36% 29.93 in 10.0 mi South 10.4 mph 17.3 mph N/A   Clear
3:53 PM 86.0 °F - 52.0 °F 31% 29.89 in 10.0 mi South 15.0 mph 20.7 mph N/A   Scattered Clouds
4:53 PM 86.0 °F - 52.0 °F 31% 29.86 in 10.0 mi South 11.5 mph 23.0 mph N/A   Mostly Cloudy
5:53 PM 84.9 °F - 52.0 °F 32% 29.85 in 10.0 mi South 10.4 mph - N/A   Mostly Cloudy
6:53 PM 84.0 °F 82.5 °F 53.1 °F 34% 29.83 in 10.0 mi South 16.1 mph - N/A   Scattered Clouds
7:53 PM 82.9 °F 81.9 °F 54.0 °F 37% 29.83 in 10.0 mi South 16.1 mph - N/A   Partly Cloudy
8:53 PM 80.1 °F 80.1 °F 55.0 °F 42% 29.83 in 10.0 mi South 16.1 mph - N/A   Clear
9:53 PM 78.1 °F - 57.0 °F 48% 29.84 in 10.0 mi SSE 11.5 mph - N/A   Clear
10:50 PM 77.0 °F - 57.2 °F 50% 30.04 in 10.0 mi SSE 10.4 mph - N/A Thunderstorm Thunderstorm
10:53 PM 77.0 °F - 57.9 °F 52% 29.87 in 10.0 mi South 9.2 mph - N/A Thunderstorm Thunderstorm
11:53 PM 72.0 °F - 63.0 °F 73% 29.88 in 8.0 mi ESE 16.1 mph - 0.00 in Rain , Thunderstorm Light Rain